Regional Weather Roundup
Issued by NWS

Home | Current Version | Previous Version | Text Only | Print | Product List | Glossary On
Versions: 1 2 3 4 5 6 7 8 9 10 11 12 13 14 15 16 17 18 19 20 21 22 23 24 25 26 27 28 29 30 31 32 33 34 35 36 37 38 39 40 41 42 43 44 45 46 47 48 49 50
000
ASUS43 KDTX 211201
RWRMI
MICHIGAN HOURLY REGIONAL WEATHER ROUNDUP
NATIONAL WEATHER SERVICE DETROIT/PONTIAC MI
700 AM EST SUN DEC 21 2014

NOTE: "FAIR" INDICATES FEW OR NO CLOUDS BELOW 12,000 FEET WITH NO
SIGNIFICANT WEATHER AND/OR OBSTRUCTION TO VISIBILITY.

MIZ047>049-052>055-059>063-066>070-074>076-081>083-211300-
SOUTHEAST LOWER MICHIGAN

CITY           SKY/WX    TMP DP  RH WIND       PRES   REMARKS
ADRIAN         CLOUDY    27  24  89 CALM      30.31R FOG
6HR MIN TEMP:  22; 6HR MAX TEMP:  27;

ALMA           CLOUDY    29  28  94 S5        30.27S FOG     WCI  24
ANN ARBOR      CLOUDY    26  24  92 CALM      30.29S FOG
BAD AXE        CLOUDY    22  21  98 CALM      30.29S
CARO           CLOUDY    24  22  93 CALM      30.29S
DETROIT CITY   MOCLDY    25  19  78 CALM      30.31S
6HR MIN TEMP:  25; 6HR MAX TEMP:  32;

DETROIT        CLOUDY    28  23  81 CALM      30.32R
6HR MIN TEMP:  27; 6HR MAX TEMP:  30;

FLINT          CLOUDY    29  24  82 S3        30.29S
6HR MIN TEMP:  20; 6HR MAX TEMP:  29;

GROSSE ILE     PTCLDY    30  25  80 CALM      30.30S
HILLSDALE      CLOUDY    29  28  96 CALM      30.27R FOG
HOWELL         CLOUDY    27  24  87 CALM      30.28R
6HR MIN TEMP:  23; 6HR MAX TEMP:  27;


CITY           SKY/WX    TMP DP  RH WIND       PRES   REMARKS
JACKSON        CLOUDY    28  24  85 S3        30.28R FOG
6HR MIN TEMP:  27; 6HR MAX TEMP:  28;

LAMBERTVILLE   CLOUDY    23  21  93 CALM      30.32R FOG
LANSING        CLOUDY    29  24  82 S7        30.28R HAZE    WCI  22
6HR MIN TEMP:  27; 6HR MAX TEMP:  29;

LAPEER         CLOUDY    25  23  93 CALM      30.29S
MASON          CLOUDY    28  24  88 S5        30.28R FOG     WCI  22
MONROE         MOCLDY    25  23  93 CALM      30.29S FOG
MT. CLEMENS    CLEAR     22  22  99 CALM      30.29S
6HR MIN TEMP:  22; 6HR MAX TEMP:  30;

PONTIAC        CLOUDY    26  23  88 CALM      30.28R
6HR MIN TEMP:  21; 6HR MAX TEMP:  27;

PORT HOPE        N/A     21  18  88 S3        30.28S
6HR MIN TEMP:  21; 6HR MAX TEMP:  23;

PORT HURON     MOCLDY    21  21 100 CALM      30.32S FOG
TRI CITIES     CLOUDY    29  24  82 S7        30.28S WCI  22
6HR MIN TEMP:  25; 6HR MAX TEMP:  29;

TROY           CLOUDY    30  24  78 CALM      30.32S
SAGINAW HB     CLOUDY    28  28 100 SE5       30.28F WCI  23
$$
MIZ043>046-050>051-056>058-064>065-071>073-077>080-211300-
SOUTHWEST LOWER MICHIGAN

CITY           SKY/WX    TMP DP  RH WIND       PRES   REMARKS
BATTLE CREEK   CLOUDY    30  27  88 S6        30.27R FOG     WCI  24
6HR MIN TEMP:  30; 6HR MAX TEMP:  31;

BENTON HARBOR  CLOUDY    31  26  82 S7        30.25S WCI  24
6HR MIN TEMP:  30; 6HR MAX TEMP:  31;

BIG RAPIDS     CLOUDY    30  30 100 S5        30.21S FOG     WCI  25
6HR MIN TEMP:  29; 6HR MAX TEMP:  30;

COLDWATER      CLOUDY    30  28  94 MISG      30.27S FOG
6HR MIN TEMP:  29; 6HR MAX TEMP:  30;

FREMONT        CLOUDY    31  30  96 SE5       30.22S FOG     WCI  26
HOLLAND        CLOUDY    32  26  78 S8        30.25S WCI  25
6HR MIN TEMP:  32; 6HR MAX TEMP:  33;

GRAND RAPIDS   CLOUDY    30  26  85 S9        30.25S FOG     WCI  22
6HR MIN TEMP:  30; 6HR MAX TEMP:  31;

IONIA          CLOUDY    31  28  90 S6        30.25S FOG     WCI  25
KALAMAZOO      CLOUDY    30  27  88 S3        30.27R FOG
6HR MIN TEMP:  30; 6HR MAX TEMP:  30;

LUDINGTON      CLOUDY    32  29  89 SE6       30.20F FOG     WCI  26
6HR MIN TEMP:  31; 6HR MAX TEMP:  32;

MARSHALL       CLOUDY    28  26  92 CALM      30.27R FOG
MOUNT PLEASANT CLOUDY    29  28  96 SE3       30.25S FOG
6HR MIN TEMP:  28; 6HR MAX TEMP:  29;

MUSKEGON       CLOUDY    33  29  85 S8        30.23S WCI  26
6HR MIN TEMP:  31; 6HR MAX TEMP:  33; 6HR PCP: TRACE;

SOUTH HAVEN    CLOUDY    32  27  83 S3        30.25S HAZE
$$
MIZ016>042-211300-
NORTHERN LOWER MICHIGAN

CITY           SKY/WX    TMP DP  RH WIND       PRES   REMARKS
ALPENA         CLOUDY    22  20  92 S3        30.27S
6HR MIN TEMP:  15; 6HR MAX TEMP:  24;

BEAVER ISLAND  CLOUDY    31  27  84 CALM      30.19F
6HR MIN TEMP:  31; 6HR MAX TEMP:  32;

BELLAIRE       CLOUDY    28  26  91 CALM      30.22F
6HR MIN TEMP:  26; 6HR MAX TEMP:  28;

CADILLAC       CLOUDY    27  26  96 SE3       30.18F FOG
CHARLEVOIX     CLOUDY    27  24  86 SE3       30.24S
6HR MIN TEMP:  27; 6HR MAX TEMP:  28;

FRANKFORT      CLOUDY    31  29  94 SE5       30.19F FOG     WCI  26
GAYLORD        CLOUDY    22  20  92 SE5       30.19F WCI  16
6HR MIN TEMP:  18; 6HR MAX TEMP:  23;

GRAYLING       CLOUDY    25  24  96 CALM      30.21F
6HR MIN TEMP:  19; 6HR MAX TEMP:  25;

HARBOR SPRINGS CLOUDY    25  21  86 NE5       30.22S WCI  19
HOUGHTON LAKE  CLOUDY    25  23  92 E3        30.22F FOG
6HR MIN TEMP:  21; 6HR MAX TEMP:  25;

MANISTEE       CLOUDY    30  27  86 SE7       30.20F WCI  23
OSCODA         CLOUDY    22  20  95 CALM      30.28S
PELLSTON       CLOUDY    24  21  88 S3        30.22F
6HR MIN TEMP:  22; 6HR MAX TEMP:  24;

ROGERS CITY    CLOUDY    19  19  96 S3        30.27S
TRAVERSE CITY  CLOUDY    30  25  81 S5        30.20F WCI  25
6HR MIN TEMP:  28; 6HR MAX TEMP:  30;

$$
MIZ007>008-015-211300-
EASTERN UPPER MICHIGAN

CITY           SKY/WX    TMP DP  RH WIND       PRES   REMARKS
KINROSS        CLOUDY    25  25 100 SE5       30.22S WCI  19
6HR MIN TEMP:  25; 6HR MAX TEMP:  25;

MACKINAC ISLAN CLOUDY    28  22  76 SE7       30.22S WCI  21
6HR MIN TEMP:  27; 6HR MAX TEMP:  28;

NEWBERRY       CLOUDY    26  26  97 SE9       30.18S FOG     WCI  17
6HR MIN TEMP:  26; 6HR MAX TEMP:  27;

S. S. MARIE    CLOUDY    25  20  81 CALM      30.21F
6HR MIN TEMP:  24; 6HR MAX TEMP:  25;

MUNISING         N/A     30  24  78 SW3       30.14F
6HR MIN TEMP:  30; 6HR MAX TEMP:  30;

$$
MIZ004>006-011>014-085-211300-
CENTRAL UPPER MICHIGAN

CITY           SKY/WX    TMP DP  RH WIND       PRES   REMARKS
MANISTIQUE     CLOUDY    29  29  99 E5        30.17F WCI  24
6HR MIN TEMP:  26; 6HR MAX TEMP:  29;

ESCANABA       CLOUDY    27  23  86 CALM      30.15S
6HR MIN TEMP:  27; 6HR MAX TEMP:  28;

MENOMINEE      CLOUDY    30  27  86 S6        30.15S WCI  24
6HR MIN TEMP:  28; 6HR MAX TEMP:  30;

SAWYER-GWINN   CLOUDY    25  23  93 S8        30.10S FOG     WCI  16
$$
MIZ001>003-009>011-084-211300-
WESTERN UPPER MICHIGAN

CITY           SKY/WX    TMP DP  RH WIND       PRES   REMARKS
IRON MOUNTAIN  CLOUDY    27  24  89 SE8       30.09F FOG     WCI  19
6HR MIN TEMP:  26; 6HR MAX TEMP:  27;

HOUGHTON       CLOUDY    28  24  85 S7        30.05S WCI  21
6HR MIN TEMP:  26; 6HR MAX TEMP:  29;

COPPER HARBOR    N/A     30  26  85 CALM      30.08S
6HR MIN TEMP:  30; 6HR MAX TEMP:  32;

IRONWOOD       CLOUDY    30  27  86 S12G17    29.98S WCI  21
6HR MIN TEMP:  28; 6HR MAX TEMP:  30;

$$

ABBREVIATIONS USED IN REMARKS
   TC - TEMPERATURE IN CELSIUS
  WCI - WIND CHILL INDEX
   HX - HEAT INDEX
  VSB - VISIBILITY



USA.gov is the U.S. government's official web portal to all federal, state and local government web resources and services.